Regional Weather Roundup
Issued by NWS Northern Indiana

Current Version | Previous Version | Text Only | Print | Product List | Glossary On
Versions: 1 2 3 4 5 6 7 8 9 10 11 12 13 14 15 16 17 18 19 20 21 22 23 24 25 26 27 28 29 30 31 32 33 34 35 36 37 38 39 40 41 42 43 44 45 46 47 48 49 50
000
ASUS43 KIWX 311410
RWRIWX

KIWX WEATHER ROUNDUP
NATIONAL WEATHER SERVICE NORTHERN INDIANA
1000 AM EDT THU JUL 31 2014

NOTE: "FAIR" INDICATES FEW OR NO CLOUDS BELOW 12,000 FEET WITH NO
SIGNIFICANT WEATHER AND/OR OBSTRUCTIONS TO VISIBILITY.

* THESE STATIONS ARE NOT UNDER NWS QUALITY CONTROL. THEY ALSO MAY NOT
  REPORT WEATHER SUCH AS PRECIPITATION OR FOG.

INZ001>027-311500-
NORTHERN INDIANA

CITY           SKY/WX    TMP DP  RH WIND       PRES   REMARKS
GARY*          MOSUNNY   72  59  64 SW9       30.05S FOG
VALPARAISO     SUNNY     69  61  75 SW6       30.06S
MICHIGAN CITY* MOSUNNY   70  61  73 SW6       30.05S
LAPORTE*       SUNNY     68  60  77 SW6       30.06F
KNOX*          MOSUNNY   67  60  77 SW6       30.05S
SOUTH BEND     MOSUNNY   69  57  65 SW9       30.06R
GOSHEN         SUNNY     68  58  70 SW8       30.05S
MONTICELLO*    SUNNY     65  62  89 W3        30.07R
LOGANSPORT*    SUNNY     64  63  94 W3        30.08S
ROCHESTER*     SUNNY     70  63  78 W6        30.07S
WARSAW*        SUNNY     68  57  68 SW5       30.06S
ANGOLA*        SUNNY     70  63  78 W7        30.06R
FORT WAYNE     SUNNY     68  60  75 SW6       30.08S
HUNTINGTON*    SUNNY     67  62  82 SW3       30.07R
PERU/GRISSOM   SUNNY     68  68 100 W7        30.07S
MARION*        SUNNY     67  62  84 SW3       30.09R

$$
INZ028>050-311500-
CENTRAL INDIANA

CITY           SKY/WX    TMP DP  RH WIND       PRES   REMARKS
LAFAYETTE      SUNNY     66  62  87 W3        30.08R
KOKOMO*        SUNNY     70  63  78 SW6       30.08S
MUNCIE*        SUNNY     70  61  73 W3        30.09R
INDIANAPOLIS   SUNNY     68  62  81 SW5       30.10R

$$
MIZ043>046-050>051-056>058-064>065-071>073-077>080-311500-
SOUTHWEST LOWER MICHIGAN

CITY           SKY/WX    TMP DP  RH WIND       PRES   REMARKS
BATTLE CREEK   PTSUNNY   68  56  65 SW10      30.04S
BENTON HARBOR  MOSUNNY   69  60  73 SW13      30.03S
COLDWATER*     MOSUNNY   68  59  73 W6        30.04F
HILLSDALE*     CLOUDY    68  57  67 SW5       30.05S
HOLLAND        MOSUNNY   69  62  78 W9        30.02S
GRAND RAPIDS   MOSUNNY   69  61  75 SW10      30.02S
KALAMAZOO      PTSUNNY   68  57  68 SW7       30.04S
STURGIS*       SUNNY     66  59  77 SW8       30.05S
THREE RIVERS*  FAIR      69  59  70 SW8       30.04F

$$
OHZ001>008-015>018-024>025-311500-
NORTHWEST OHIO

CITY           SKY/WX    TMP DP  RH WIND       PRES   REMARKS
WAUSEON*       FAIR      68  55  64 VRB5      30.06S
DEFIANCE       SUNNY     68  56  65 SW6       30.06F
FINDLAY        SUNNY     69  56  62 W5        30.07R
TOLEDO EXPRESS SUNNY     68  53  58 W5        30.05S
TOLEDO METCALF SUNNY     67  54  63 SW7       30.06S
LIMA           SUNNY     69  62  78 SW5       30.08S

$$
&&


USA.gov is the U.S. government's official web portal to all federal, state and local government web resources and services.